Voltar ao catálogo

KUIPER-00468

AtivoComunicaçõesLEO
NORAD 68873·PAYLOAD·🇺🇸 United States

Lançado Apr 28, 2026 de Cape Canaveral Space Force Station

Loading…

Próximas Passagens (próximas 24 horas)

TLE

AtualizadoSource: CelesTrak SupGP

Época: Sep 14, 2026, 17:31 UTC

1 68873C 26095K   26257.73027778  .00002030  00000+0  28731-3 0  2572
2 68873  51.8971 192.1788 0000880 158.0574  72.0343 14.76616915    13

Acompanhe KUIPER-00468 em tempo real com AllMySat

Download on the App Store